Regional Weather Roundup
Issued by NWS State College, PA

Home | Current Version | Previous Version | Graphics & Text | Print | Product List | Glossary Off
Versions: 1 2 3 4 5 6 7 8 9 10 11 12 13 14 15 16 17 18 19 20 21 22 23 24 25 26 27 28 29 30 31 32 33 34 35 36 37 38 39 40 41 42 43 44 45 46 47 48 49 50

000
ASUS41 KCTP 041203
RWRCTP

REGIONAL WEATHER ROUNDUP
NATIONAL WEATHER SERVICE STATE COLLEGE PA
800 AM EDT FRI SEP 04 2015

Note: "fair" indicates few or no clouds below 12,000 feet with no
significant weather and/or obstructions to visibility.

* = STATION THAT DOES NOT REPORT PRECIPITATION /E.G. RAIN...SNOW...ETC/
    THUNDER OR FOG.

PAZ002>004-007>009-013>016-020>023-029>032-041300-
WESTERN PENNSYLVANIA

CITY           SKY/WX    TMP DP  RH WIND       PRES   REMARKS
ERIE           PTSUNNY   72  67  84 CALM      30.04R HAZE
MEADVILLE      FOG       67  65  93 W3        30.08R VSB 3/4
FRANKLIN*      CLOUDY    64  64 100 E6        30.10R VSB<1/4
NEW CASTLE     FAIR      69  69 100 CALM      30.07S FOG
BEAVER COUNTY  SUNNY     66  64  94 CALM      30.07R FOG
BUTLER*        MOSUNNY   66  64  94 CALM      30.10R
PITTSBURGH INT PTSUNNY   68  64  87 S3        30.07R
PITTSBURGH     SUNNY     69  63  81 CALM      30.08R HAZE
INDIANA*       PTSUNNY   66  66 100 CALM      30.12S FOG
LATROBE        NOT AVBL
WASHINGTON CO* MOSUNNY   64  63  94 CALM      30.09R
$$

PAZ004>006-010>012-017>019-024>028-033>037-041-042-045-046-049>053-041300-
CENTRAL PENNSYLVANIA

CITY           SKY/WX    TMP DP  RH WIND       PRES   REMARKS
BRADFORD       FOG       64  63  96 SE3       30.12R VSB<1/4
DUBOIS         SUNNY     66  62  87 CALM      30.10R FOG
CLEARFIELD     MOSUNNY   64  62  93 CALM      30.11R FOG
JOHNSTOWN      MOSUNNY   67  64  90 CALM      30.13R FOG
ALTOONA        SUNNY     67  65  93 CALM      30.09R FOG
STATE COLLEGE  SUNNY     66  64  94 CALM      30.09R
WILLIAMSPORT   CLOUDY    68  66  93 W7        30.05R FOG
SELINSGROVE    FOG       68  67  96 CALM      30.05R VSB 1/4
FT INDIANTOWN  SUNNY     73  67  82 NE2       30.02R
CAPITAL CITY   SUNNY     73  67  81 SW6       30.02R HAZE
HARRISBURG     SUNNY     75  69  81 NW5       30.01R
YORK           SUNNY     71  68  90 W3        30.02R FOG
$$

PAZ038>040-043-044-047-048-054-055-060>062-067>071-041300-
EASTERN PENNSYLVANIA

CITY           SKY/WX    TMP DP  RH WIND       PRES   REMARKS
SCRANTON       SUNNY     69  65  86 SE5       30.07R FOG
MOUNT POCONO   SUNNY     70  64  81 E9        30.10R
ALLENTOWN      SUNNY     74  67  78 NE8       30.03R
QUAKERTOWN*    SUNNY     72  68  88 N5        30.04R
READING        SUNNY     74  67  78 N6        30.01R
LANCASTER      SUNNY     74  67  78 CALM      30.01R
COATESVILLE    SUNNY     73  68  83 NE3       30.03R
POTTSTOWN      SUNNY     72  69  90 CALM      30.03R
BLUE BELL      SUNNY     73  70  88 CALM      30.00R
DOYLESTOWN     SUNNY     71  67  87 NE6       30.02R
WILLOW GROVE   NOT AVBL
NORTH PHILA    SUNNY     77  66  68 NE8       30.01R
PHILADELPHIA   MOSUNNY   79  67  66 NE6       29.99R
$$


USA.gov is the U.S. government's official web portal to all federal, state and local government web resources and services.